This demonstration page uses our WeatherBlox Daily Observations layout. Learn more.

41.55636, -103.73856

Hourly Observations for August 17, 2016

Temp ( °F °C ) Dew Point ( °F °C ) Humidity (%) Winds ( mph kmh ) Pressure ( in mb ) Visibility ( mi km ) Precip ( " mm )
12:53 am 00:53 Clear 62 16.7 53 11.7 73 73 ENE 8 13 30.02 1017 10 16.0934 0 0
1:53 am 01:53 Clear 62 16.7 51 10.6 67 67 E 7 11 29.99 1016 10 16.0934 0 0
2:53 am 02:53 Clear 60 15.6 51 10.6 72 72 ENE 7 11 29.98 1015 10 16.0934 0 0
3:53 am 03:53 Clear 57 13.9 51 10.6 81 81 Calm 29.98 1015 10 16.0934 0 0
4:53 am 04:53 Clear 57 13.9 51 10.6 81 81 Calm 29.99 1016 10 16.0934 0 0
5:53 am 05:53 Clear 54 12.2 50 10 87 87 E 6 9 30 1016 10 16.0934 0 0
6:53 am 06:53 Sunny 57 13.9 51 10.6 81 81 ESE 6 9 30.01 1016 10 16.0934 0 0
7:53 am 07:53 Sunny 63 17.2 52 11.1 68 68 E 8 13 30.02 1017 10 16.0934 0 0
8:53 am 08:53 Sunny 70 21.1 54 12.2 57 57 SE 10 17 30.01 1016 10 16.0934 0 0
9:53 am 09:53 Sunny 78 25.6 55 12.8 45 45 ESE 7 11 29.99 1016 10 16.0934 0 0
10:53 am 10:53 Sunny 82 27.8 57 13.9 42 42 E 10 17 29.97 1015 10 16.0934 0 0
11:53 am 11:53 Sunny 86 30 59 15 40 40 E 12 19 29.95 1014 10 16.0934 0 0
12:53 pm 12:53 Sunny 94 34.4 48 8.9 21 21 SE 13 20 29.91 1013 10 16.0934 0 0
1:53 pm 13:53 Sunny 95 35 43 6.1 17 17 SSE 12 19 29.89 1012 10 16.0934 0 0
2:53 pm 14:53 Sunny 96 35.6 44 6.7 17 17 E 9 15 29.88 1012 10 16.0934 0 0
3:53 pm 15:53 Sunny 94 34.4 49 9.4 21 21 ESE 14 22 29.87 1011 10 16.0934 0 0
4:53 pm 16:53 Sunny 94 34.4 47 8.3 20 20 ESE 12 19 29.86 1011 10 16.0934 0 0
5:53 pm 17:53 Sunny 92 33.3 42 5.6 18 18 SE 10 17 29.88 1012 10 16.0934 0 0
6:53 pm 18:53 Sunny 86 30 50 10 29 29 SE 6 9 29.87 1011 10 16.0934 0 0
7:53 pm 19:53 Clear 75 23.9 60 15.6 60 60 E 7 11 29.89 1012 10 16.0934 0 0
8:53 pm 20:53 Clear 71 21.7 58 14.4 63 63 E 7 11 29.9 1013 10 16.0934 0 0
9:53 pm 21:53 Clear 68 20 56 13.3 65 65 E 7 11 29.9 1013 10 16.0934 0 0
10:53 pm 22:53 Clear 67 19.4 53 11.7 61 61 E 7 11 29.9 1012 10 16.0934 0 0
11:53 pm 23:53 Clear 69 20.6 51 10.6 53 53 E 5 7 29.88 1012 10 16.0934 0 0

Powered by AerisWeather